Time,TemperatureF,DewpointF,PressureIn,WindDirection,WindDirectionDegrees,WindSpeedMPH,WindSpeedGustMPH,Humidity,HourlyPrecipIn,Conditions,Clouds,dailyrainin,SoftwareType,DateUTC
2013-07-30 00:12:00,61.0,60.4,30.04,SW,225,0.0,-999.0,98,-99.99,,,0.00,Acu-Link.com,2013-07-30 04:12:00,
2013-07-30 00:27:00,61.2,60.6,30.04,WSW,247,0.0,-999.0,98,-99.99,,,0.00,Acu-Link.com,2013-07-30 04:27:00,
2013-07-30 00:43:00,61.0,60.4,30.04,NNW,337,0.0,-999.0,98,-99.99,,,0.00,Acu-Link.com,2013-07-30 04:43:00,
2013-07-30 00:58:00,60.4,59.8,30.04,NE,45,0.0,-999.0,98,-99.99,,,0.00,Acu-Link.com,2013-07-30 04:58:00,
2013-07-30 01:13:00,60.1,59.5,30.03,NE,45,0.0,-999.0,98,-99.99,,,0.00,Acu-Link.com,2013-07-30 05:13:00,
2013-07-30 01:28:00,59.2,58.6,30.03,East,90,0.0,-999.0,98,-99.99,,,0.00,Acu-Link.com,2013-07-30 05:28:00,
2013-07-30 01:43:00,58.6,58.0,30.03,NE,45,0.0,-999.0,98,-99.99,,,0.00,Acu-Link.com,2013-07-30 05:43:00,
2013-07-30 01:58:00,58.3,57.7,30.03,WSW,247,0.0,-999.0,98,-99.99,,,0.00,Acu-Link.com,2013-07-30 05:58:00,
2013-07-30 02:13:00,57.9,57.3,30.03,ENE,67,0.0,-999.0,98,-99.99,,,0.00,Acu-Link.com,2013-07-30 06:13:00,
2013-07-30 02:28:00,57.6,57.0,30.03,WNW,292,0.0,-999.0,98,-99.99,,,0.00,Acu-Link.com,2013-07-30 06:28:00,
2013-07-30 02:43:00,57.0,56.4,30.03,WNW,292,0.0,-999.0,98,-99.99,,,0.00,Acu-Link.com,2013-07-30 06:43:00,
2013-07-30 02:59:00,56.7,56.1,30.03,ENE,67,0.0,-999.0,98,-99.99,,,0.00,Acu-Link.com,2013-07-30 06:59:00,
2013-07-30 03:14:00,56.7,56.1,30.03,NE,45,0.0,-999.0,98,-99.99,,,0.00,Acu-Link.com,2013-07-30 07:14:00,
2013-07-30 03:29:00,56.3,55.7,30.03,NE,45,0.0,-999.0,98,-99.99,,,0.00,Acu-Link.com,2013-07-30 07:29:00,
2013-07-30 03:44:00,55.8,55.2,30.03,East,90,0.0,-999.0,98,-99.99,,,0.00,Acu-Link.com,2013-07-30 07:44:00,
2013-07-30 03:59:00,55.4,54.8,30.03,NNE,22,0.0,-999.0,98,-99.99,,,0.00,Acu-Link.com,2013-07-30 07:59:00,
2013-07-30 04:14:00,55.4,54.8,30.03,NW,315,0.0,-999.0,98,-99.99,,,0.00,Acu-Link.com,2013-07-30 08:14:00,
2013-07-30 04:29:00,54.9,54.3,30.03,NE,45,0.0,-999.0,98,-99.99,,,0.00,Acu-Link.com,2013-07-30 08:29:00,
2013-07-30 04:44:00,55.0,54.4,30.03,NNE,22,0.0,-999.0,98,-99.99,,,0.00,Acu-Link.com,2013-07-30 08:44:00,
2013-07-30 04:59:00,54.9,54.3,30.03,NNE,22,0.0,-999.0,98,-99.99,,,0.00,Acu-Link.com,2013-07-30 08:59:00,
2013-07-30 05:15:00,54.9,54.3,30.04,NNE,22,0.0,-999.0,98,-99.99,,,0.00,Acu-Link.com,2013-07-30 09:15:00,
2013-07-30 05:30:00,54.3,53.7,30.04,NE,45,0.0,-999.0,98,-99.99,,,0.00,Acu-Link.com,2013-07-30 09:30:00,
2013-07-30 05:45:00,54.1,53.5,30.05,ESE,112,0.0,-999.0,98,-99.99,,,0.00,Acu-Link.com,2013-07-30 09:45:00,
2013-07-30 06:00:00,54.3,53.7,30.05,ESE,112,0.0,-999.0,98,-99.99,,,0.00,Acu-Link.com,2013-07-30 10:00:00,
2013-07-30 06:15:00,54.0,53.4,30.06,ESE,112,0.0,-999.0,98,-99.99,,,0.00,Acu-Link.com,2013-07-30 10:15:00,
2013-07-30 06:30:00,53.8,53.2,30.06,ESE,112,0.0,-999.0,98,-99.99,,,0.00,Acu-Link.com,2013-07-30 10:30:00,
2013-07-30 06:45:00,54.0,53.4,30.07,ESE,112,0.0,-999.0,98,-99.99,,,0.00,Acu-Link.com,2013-07-30 10:45:00,
2013-07-30 07:00:00,55.2,54.6,30.07,ESE,112,0.0,-999.0,98,-99.99,,,0.00,Acu-Link.com,2013-07-30 11:00:00,
2013-07-30 07:15:00,56.7,56.1,30.07,NNW,337,0.0,-999.0,98,-99.99,,,0.00,Acu-Link.com,2013-07-30 11:15:00,
2013-07-30 07:31:00,57.7,57.1,30.07,SE,135,0.0,-999.0,98,-99.99,,,0.00,Acu-Link.com,2013-07-30 11:31:00,
2013-07-30 07:46:00,58.8,58.2,30.07,West,270,0.0,-999.0,98,-99.99,,,0.00,Acu-Link.com,2013-07-30 11:46:00,
2013-07-30 08:01:00,60.3,59.7,30.07,NNW,337,0.0,-999.0,98,-99.99,,,0.00,Acu-Link.com,2013-07-30 12:01:00,
2013-07-30 08:16:00,62.6,62.0,30.08,ESE,112,1.7,-999.0,98,-99.99,,,0.00,Acu-Link.com,2013-07-30 12:16:00,
2013-07-30 08:31:00,64.2,63.6,30.08,WNW,292,0.0,-999.0,98,-99.99,,,0.00,Acu-Link.com,2013-07-30 12:31:00,
2013-07-30 09:01:00,68.9,68.3,30.09,South,180,0.0,-999.0,98,-99.99,,,0.00,Acu-Link.com,2013-07-30 13:01:00,
2013-07-30 09:17:00,70.7,70.1,30.08,ENE,67,2.2,-999.0,98,-99.99,,,0.00,Acu-Link.com,2013-07-30 13:17:00,
2013-07-30 09:32:00,71.1,70.5,30.08,SSW,202,1.1,-999.0,98,-99.99,,,0.00,Acu-Link.com,2013-07-30 13:32:00,
2013-07-30 09:47:00,75.2,74.6,30.08,SSW,202,0.0,-999.0,98,-99.99,,,0.00,Acu-Link.com,2013-07-30 13:47:00,
2013-07-30 10:02:00,78.6,78.0,30.08,NE,45,2.7,-999.0,98,-99.99,,,0.00,Acu-Link.com,2013-07-30 14:02:00,
2013-07-30 10:17:00,78.3,77.7,30.07,South,180,1.1,-999.0,98,-99.99,,,0.00,Acu-Link.com,2013-07-30 14:17:00,
2013-07-30 10:32:00,79.5,78.9,30.06,SW,225,4.2,-999.0,98,-99.99,,,0.00,Acu-Link.com,2013-07-30 14:32:00,
2013-07-30 10:47:00,77.2,76.6,30.07,South,180,0.0,-999.0,98,-99.99,,,0.00,Acu-Link.com,2013-07-30 14:47:00,
2013-07-30 11:02:00,80.6,80.0,30.05,South,180,1.1,-999.0,98,-99.99,,,0.00,Acu-Link.com,2013-07-30 15:02:00,
2013-07-30 11:17:00,83.1,82.5,30.05,SSE,157,3.7,-999.0,98,-99.99,,,0.00,Acu-Link.com,2013-07-30 15:17:00,
2013-07-30 11:33:00,82.9,82.3,30.05,SW,225,2.7,-999.0,98,-99.99,,,0.00,Acu-Link.com,2013-07-30 15:33:00,
2013-07-30 11:48:00,83.5,82.9,30.05,WNW,292,2.2,-999.0,98,-99.99,,,0.00,Acu-Link.com,2013-07-30 15:48:00,
2013-07-30 12:03:00,83.5,82.9,30.05,West,270,2.2,-999.0,98,-99.99,,,0.00,Acu-Link.com,2013-07-30 16:03:00,
2013-07-30 12:18:00,82.6,82.0,30.05,WNW,292,0.0,-999.0,98,-99.99,,,0.00,Acu-Link.com,2013-07-30 16:18:00,
2013-07-30 12:33:00,84.6,84.0,30.05,East,90,2.2,-999.0,98,-99.99,,,0.00,Acu-Link.com,2013-07-30 16:33:00,
2013-07-30 12:48:00,87.6,87.0,30.04,South,180,2.7,-999.0,98,-99.99,,,0.00,Acu-Link.com,2013-07-30 16:48:00,
2013-07-30 13:03:00,84.7,84.1,30.03,SW,225,0.0,-999.0,98,-99.99,,,0.00,Acu-Link.com,2013-07-30 17:03:00,
2013-07-30 13:18:00,86.0,85.4,30.03,South,180,0.0,-999.0,98,-99.99,,,0.00,Acu-Link.com,2013-07-30 17:18:00,
2013-07-30 13:33:00,83.8,83.2,30.02,NNE,22,1.1,-999.0,98,-99.99,,,0.00,Acu-Link.com,2013-07-30 17:33:00,
2013-07-30 13:49:00,84.7,84.1,30.01,ESE,112,2.2,-999.0,98,-99.99,,,0.00,Acu-Link.com,2013-07-30 17:49:00,
2013-07-30 14:04:00,86.4,85.8,30.02,ENE,67,0.0,-999.0,98,-99.99,,,0.00,Acu-Link.com,2013-07-30 18:04:00,
2013-07-30 14:19:00,86.2,85.6,30.02,WSW,247,2.7,-999.0,98,-99.99,,,0.00,Acu-Link.com,2013-07-30 18:19:00,
2013-07-30 14:34:00,87.1,86.5,30.02,SSE,157,0.0,-999.0,98,-99.99,,,0.00,Acu-Link.com,2013-07-30 18:34:00,
2013-07-30 14:49:00,86.0,85.4,30.02,ENE,67,2.7,-999.0,98,-99.99,,,0.00,Acu-Link.com,2013-07-30 18:49:00,
2013-07-30 15:04:00,86.0,85.4,30.00,West,270,1.7,-999.0,98,-99.99,,,0.00,Acu-Link.com,2013-07-30 19:04:00,
2013-07-30 15:19:00,88.3,87.7,30.00,East,90,0.0,-999.0,98,-99.99,,,0.00,Acu-Link.com,2013-07-30 19:19:00,
2013-07-30 15:34:00,85.8,85.2,29.99,ENE,67,5.3,-999.0,98,-99.99,,,0.00,Acu-Link.com,2013-07-30 19:34:00,
2013-07-30 15:49:00,90.7,90.1,29.99,ENE,67,3.2,-999.0,98,-99.99,,,0.00,Acu-Link.com,2013-07-30 19:49:00,
2013-07-30 16:05:00,94.5,93.8,29.99,ESE,112,0.0,-999.0,98,-99.99,,,0.00,Acu-Link.com,2013-07-30 20:05:00,
2013-07-30 16:20:00,89.2,88.6,30.00,WNW,292,1.7,-999.0,98,-99.99,,,0.00,Acu-Link.com,2013-07-30 20:20:00,
2013-07-30 16:35:00,92.7,92.0,29.99,East,90,2.7,-999.0,98,-99.99,,,0.00,Acu-Link.com,2013-07-30 20:35:00,
2013-07-30 16:50:00,89.8,89.2,29.98,West,270,0.0,-999.0,98,-99.99,,,0.00,Acu-Link.com,2013-07-30 20:50:00,
2013-07-30 17:05:00,91.9,91.3,29.98,South,180,0.0,-999.0,98,-99.99,,,0.00,Acu-Link.com,2013-07-30 21:05:00,
2013-07-30 17:20:00,91.8,91.2,29.98,ESE,112,3.7,-999.0,98,-99.99,,,0.00,Acu-Link.com,2013-07-30 21:20:00,
2013-07-30 17:35:00,88.2,87.6,29.98,WNW,292,2.7,-999.0,98,-99.99,,,0.00,Acu-Link.com,2013-07-30 21:35:00,
2013-07-30 17:50:00,88.3,87.7,29.98,ESE,112,2.2,-999.0,98,-99.99,,,0.00,Acu-Link.com,2013-07-30 21:50:00,
2013-07-30 18:05:00,87.4,86.8,29.99,SSW,202,3.2,-999.0,98,-99.99,,,0.00,Acu-Link.com,2013-07-30 22:05:00,
2013-07-30 18:21:00,87.8,87.2,29.98,SSE,157,4.7,-999.0,98,-99.99,,,0.00,Acu-Link.com,2013-07-30 22:21:00,
2013-07-30 18:36:00,84.6,84.0,29.98,SW,225,3.2,-999.0,98,-99.99,,,0.00,Acu-Link.com,2013-07-30 22:36:00,
2013-07-30 18:51:00,82.8,82.2,29.98,East,90,0.0,-999.0,98,-99.99,,,0.00,Acu-Link.com,2013-07-30 22:51:00,
2013-07-30 19:21:00,80.2,79.6,29.97,SSE,157,2.7,-999.0,98,-99.99,,,0.00,Acu-Link.com,2013-07-30 23:21:00,
2013-07-30 19:36:00,78.6,78.0,29.97,SSE,157,0.0,-999.0,98,-99.99,,,0.00,Acu-Link.com,2013-07-30 23:36:00,
2013-07-30 19:51:00,77.4,76.8,29.98,East,90,1.1,-999.0,98,-99.99,,,0.00,Acu-Link.com,2013-07-30 23:51:00,
2013-07-30 20:06:00,76.3,75.7,29.98,NE,45,2.7,-999.0,98,-99.99,,,0.00,Acu-Link.com,2013-07-31 00:06:00,
2013-07-30 20:22:00,74.7,74.1,29.98,ENE,67,0.0,-999.0,98,-99.99,,,0.00,Acu-Link.com,2013-07-31 00:22:00,
2013-07-30 20:37:00,73.8,73.2,29.98,NNW,337,0.0,-999.0,98,-99.99,,,0.00,Acu-Link.com,2013-07-31 00:37:00,
2013-07-30 20:52:00,72.3,71.7,29.98,ENE,67,0.0,-999.0,98,-99.99,,,0.00,Acu-Link.com,2013-07-31 00:52:00,
2013-07-30 21:07:00,71.2,70.6,29.98,West,270,0.0,-999.0,98,-99.99,,,0.00,Acu-Link.com,2013-07-31 01:07:00,
2013-07-30 21:22:00,70.2,69.6,29.98,SSW,202,0.0,-999.0,98,-99.99,,,0.00,Acu-Link.com,2013-07-31 01:22:00,
2013-07-30 21:37:00,69.4,68.8,29.99,North,0,0.0,-999.0,98,-99.99,,,0.00,Acu-Link.com,2013-07-31 01:37:00,
2013-07-30 21:52:00,68.7,68.1,29.99,ENE,67,0.0,-999.0,98,-99.99,,,0.00,Acu-Link.com,2013-07-31 01:52:00,
2013-07-30 22:07:00,68.0,67.4,30.00,ENE,67,0.0,-999.0,98,-99.99,,,0.00,Acu-Link.com,2013-07-31 02:07:00,
2013-07-30 22:23:00,67.6,67.0,30.00,East,90,0.0,-999.0,98,-99.99,,,0.00,Acu-Link.com,2013-07-31 02:23:00,
2013-07-30 22:38:00,67.1,66.5,30.00,NE,45,0.0,-999.0,98,-99.99,,,0.00,Acu-Link.com,2013-07-31 02:38:00,
2013-07-30 22:53:00,66.6,66.0,30.00,SSW,202,0.0,-999.0,98,-99.99,,,0.00,Acu-Link.com,2013-07-31 02:53:00,
2013-07-30 23:08:00,66.4,65.8,30.00,NE,45,0.0,-999.0,98,-99.99,,,0.00,Acu-Link.com,2013-07-31 03:08:00,
2013-07-30 23:23:00,66.2,65.6,29.99,West,270,0.0,-999.0,98,-99.99,,,0.00,Acu-Link.com,2013-07-31 03:23:00,
2013-07-30 23:38:00,66.0,65.4,29.99,NE,45,0.0,-999.0,98,-99.99,,,0.00,Acu-Link.com,2013-07-31 03:38:00,
2013-07-30 23:53:00,65.3,64.7,30.00,ENE,67,0.0,-999.0,98,-99.99,,,0.00,Acu-Link.com,2013-07-31 03:53:00,